Regional Weather Roundup
Issued by NWS

Home | Current Version | Previous Version | Text Only | Print | Product List | Glossary Off
Versions: 1 2 3 4 5 6 7 8 9 10 11 12 13 14 15 16 17 18 19 20 21 22 23 24 25 26 27 28 29 30 31 32 33 34 35 36 37 38 39 40 41 42 43 44 45 46 47 48 49 50

000
ASUS45 KSLC 300410
RWRUT

UTAH REGIONAL WEATHER ROUNDUP
NATIONAL WEATHER SERVICE SALT LAKE CITY UT
1000 PM MDT TUE JUL 29 2014

UTZ001>011-023>025-300500-

NORTHERN UTAH

CITY           SKY/WX    TMP DP  RH WIND       PRES   REMARKS
HILL AFB       CLOUDY    67  60  78 E6        30.20R
LOGAN          CLOUDY    70  62  76 E3        30.18R
OGDEN          CLOUDY    70  61  73 NW5       30.17R
PROVO AIRPORT  MOCLDY    66  57  72 CALM      30.20R
SALT LAKE CITY MOCLDY    70  62  76 N7        30.15R
VERNAL         CLOUDY    64  58  80 CALM      30.24R
WENDOVER       CLOUDY    72  57  60 NE5       30.18R
HEBER CITY     CLOUDY    64  55  72 CALM      30.24R
WEST JORDAN    MOCLDY    70  64  83 CALM      30.20R

$$

UTZ012>022-026-027-300500-

SOUTHERN UTAH

CITY           SKY/WX    TMP DP  RH WIND       PRES   REMARKS
BRYCE CANYON   CLOUDY    58  55  90 W6        30.37R
CEDAR CITY     PTCLDY    63  61  93 CALM      30.22R
MILFORD        CLEAR     69  58  67 SW12      30.18R
MOAB/CYNLANDS  CLEAR     67  63  87 NE6       30.15R
PRICE          MOCLDY    64  55  72 NW5       30.24R
ST GEORGE      MOCLDY    91  54  27 SW7       30.00R
KANAB            N/A     73  54  49 NW9       30.19R

$$

REGIONAL REPORTS     COLORADO/ARIZONA

CITY           SKY/WX    TMP DP  RH WIND       PRES   REMARKS
CRAIG, CO      LGT RAIN  54  32  43 S3        30.29S
GRAND JUNCTION CLOUDY    62  59  90 S5        30.22S
RIFLE          LGT RAIN  60  58  92 NE7       30.28R
MONTROSE       CLOUDY    63  57  81 W10       30.30R
CORTEZ         PTCLDY    64  53  67 N6        30.24R
PAGE, AZ       MOCLDY    86  51  29 NW6       30.09R
GRAND CANYON   MOCLDY    69  50  50 SW3       30.30R
KINGMAN        CLEAR     86  48  26 SW9       30.04R
FLAGSTAFF      PTCLDY    70  47  43 W7        30.34R

$$

REGIONAL REPORTS    NEVADA/IDAHO/WYOMING

CITY           SKY/WX    TMP DP  RH WIND       PRES   REMARKS
LAS VEGAS, NV  PTCLDY    96  53  23 SW6       29.90R HX  93
ELY            LGT RAIN  58  58 100 SW8       30.33F
ELKO           CLOUDY    68  52  56 NW6       30.26S
POCATELLO, ID  PTCLDY    68  54  60 N12       30.23R
BURLEY         CLOUDY    70  54  56 N12G20    30.21R
EVANSTON, WY   CLOUDY    59  55  87 E15       30.34R
ROCK SPRINGS   CLOUDY    56  52  86 NE17      30.35R

$$



USA.gov is the U.S. government's official web portal to all federal, state and local government web resources and services.